contact:dominique.lefevre@mio.osupytheas.fr, maurice.libes@osupytheas.fr, didier.mallarino@osupytheas.fr
Project:EMSO http://www.emso-fr.org/EMSO-France
Depth: 2436.0 m
Title:EMSO Ligure Ouest : Data MII capteur MICROCAT
DateTime_Computer,Latitude,Longitude,Temperature,Conductivity,Pressure,DateTime_Instrument
DateTime_Computer,Latitude,Longitude,degC,S m-1,dbar,DateTime_Instrument
2022-02-28T00:02:49Z,42.805,6.029,13.2998,4.60028,2470.46,2022-2-28T02:04:23Z
2022-02-28T00:05:52Z,42.805,6.029,13.2997,4.60029,2470.474,2022-2-28T02:07:26Z
2022-02-28T00:08:55Z,42.805,6.029,13.2998,4.60033,2470.46,2022-2-28T02:10:30Z
2022-02-28T00:11:58Z,42.805,6.029,13.2997,4.60029,2470.46,2022-2-28T02:13:33Z
2022-02-28T00:15:01Z,42.805,6.029,13.2996,4.60031,2470.437,2022-2-28T02:16:36Z
2022-02-28T00:18:04Z,42.805,6.029,13.2998,4.60031,2470.437,2022-2-28T02:19:39Z
2022-02-28T00:21:07Z,42.805,6.029,13.2998,4.60031,2470.474,2022-2-28T02:22:42Z
2022-02-28T00:24:11Z,42.805,6.029,13.2996,4.60033,2470.413,2022-2-28T02:25:45Z
2022-02-28T00:27:14Z,42.805,6.029,13.3000,4.60029,2470.427,2022-2-28T02:28:48Z
2022-02-28T00:30:17Z,42.805,6.029,13.2996,4.60030,2470.413,2022-2-28T02:31:51Z
2022-02-28T00:33:20Z,42.805,6.029,13.2996,4.60029,2470.46,2022-2-28T02:34:55Z
2022-02-28T00:36:23Z,42.805,6.029,13.2995,4.60029,2470.437,2022-2-28T02:37:58Z
2022-02-28T00:39:26Z,42.805,6.029,13.2998,4.60029,2470.474,2022-2-28T02:41:01Z
2022-02-28T00:42:29Z,42.805,6.029,13.2996,4.60032,2470.45,2022-2-28T02:44:04Z
2022-02-28T00:45:32Z,42.805,6.029,13.2996,4.60031,2470.437,2022-2-28T02:47:07Z
2022-02-28T00:48:36Z,42.805,6.029,13.2998,4.60031,2470.437,2022-2-28T02:50:10Z
2022-02-28T00:51:39Z,42.805,6.029,13.2995,4.60031,2470.437,2022-2-28T02:53:13Z
2022-02-28T00:54:42Z,42.805,6.029,13.2998,4.60028,2470.46,2022-2-28T02:56:16Z
2022-02-28T00:57:45Z,42.805,6.029,13.2998,4.60032,2470.474,2022-2-28T02:59:20Z
2022-02-28T01:00:48Z,42.805,6.029,13.3000,4.60029,2470.437,2022-2-28T03:02:23Z
2022-02-28T01:03:51Z,42.805,6.029,13.2999,4.60033,2470.46,2022-2-28T03:05:26Z
2022-02-28T01:06:54Z,42.805,6.029,13.2998,4.60033,2470.46,2022-2-28T03:08:29Z
2022-02-28T01:09:57Z,42.805,6.029,13.2998,4.60033,2470.46,2022-2-28T03:11:32Z
2022-02-28T01:13:01Z,42.805,6.029,13.2998,4.60028,2470.46,2022-2-28T03:14:35Z
2022-02-28T01:16:04Z,42.805,6.029,13.2998,4.60029,2470.497,2022-2-28T03:17:38Z
2022-02-28T01:19:07Z,42.805,6.029,13.2997,4.60032,2470.497,2022-2-28T03:20:41Z
2022-02-28T01:22:10Z,42.805,6.029,13.2996,4.60033,2470.47,2022-2-28T03:23:45Z
2022-02-28T01:25:13Z,42.805,6.029,13.2997,4.60032,2470.46,2022-2-28T03:26:48Z
2022-02-28T01:28:16Z,42.805,6.029,13.2998,4.60040,2470.483,2022-2-28T03:29:51Z
2022-02-28T01:31:19Z,42.805,6.029,13.2997,4.60029,2470.474,2022-2-28T03:32:54Z
2022-02-28T01:34:22Z,42.805,6.029,13.2998,4.60035,2470.474,2022-2-28T03:35:57Z
2022-02-28T01:37:26Z,42.805,6.029,13.3003,4.60034,2470.483,2022-2-28T03:39:00Z
2022-02-28T01:40:29Z,42.805,6.029,13.3002,4.60039,2470.497,2022-2-28T03:42:03Z
2022-02-28T01:43:32Z,42.805,6.029,13.3015,4.60038,2470.483,2022-2-28T03:45:06Z
2022-02-28T01:46:35Z,42.805,6.029,13.3003,4.60033,2470.497,2022-2-28T03:48:09Z
2022-02-28T01:49:38Z,42.805,6.029,13.3000,4.60033,2470.497,2022-2-28T03:51:13Z
2022-02-28T01:52:41Z,42.805,6.029,13.2999,4.60029,2470.507,2022-2-28T03:54:16Z
2022-02-28T01:55:44Z,42.805,6.029,13.2998,4.60031,2470.483,2022-2-28T03:57:19Z
2022-02-28T01:58:47Z,42.805,6.029,13.2998,4.60031,2470.52,2022-2-28T04:00:22Z
2022-02-28T02:01:50Z,42.805,6.029,13.2994,4.60029,2470.507,2022-2-28T04:03:25Z
2022-02-28T02:04:54Z,42.805,6.029,13.2996,4.60033,2470.507,2022-2-28T04:06:28Z
2022-02-28T02:07:57Z,42.805,6.029,13.3006,4.60034,2470.507,2022-2-28T04:09:31Z
2022-02-28T02:11:00Z,42.805,6.029,13.3000,4.60031,2470.53,2022-2-28T04:12:34Z
2022-02-28T02:14:03Z,42.805,6.029,13.2994,4.60032,2470.507,2022-2-28T04:15:38Z
2022-02-28T02:17:06Z,42.805,6.029,13.3000,4.60031,2470.507,2022-2-28T04:18:41Z
2022-02-28T02:20:09Z,42.805,6.029,13.3000,4.60035,2470.53,2022-2-28T04:21:44Z
2022-02-28T02:23:12Z,42.805,6.029,13.2996,4.60033,2470.53,2022-2-28T04:24:47Z
2022-02-28T02:26:15Z,42.805,6.029,13.3002,4.60037,2470.52,2022-2-28T04:27:50Z
2022-02-28T02:29:19Z,42.805,6.029,13.2999,4.60039,2470.53,2022-2-28T04:30:53Z
2022-02-28T02:32:22Z,42.805,6.029,13.3001,4.60035,2470.507,2022-2-28T04:33:56Z
2022-02-28T02:35:25Z,42.805,6.029,13.2998,4.60034,2470.567,2022-2-28T04:36:59Z
2022-02-28T02:38:28Z,42.805,6.029,13.2996,4.60033,2470.553,2022-2-28T04:40:03Z
2022-02-28T02:41:31Z,42.805,6.029,13.2998,4.60029,2470.553,2022-2-28T04:43:06Z
2022-02-28T02:44:34Z,42.805,6.029,13.2999,4.60030,2470.553,2022-2-28T04:46:09Z
2022-02-28T02:47:37Z,42.805,6.029,13.2993,4.60029,2470.553,2022-2-28T04:49:12Z
2022-02-28T02:50:40Z,42.805,6.029,13.2996,4.60029,2470.591,2022-2-28T04:52:15Z
2022-02-28T02:53:44Z,42.805,6.029,13.2999,4.60034,2470.567,2022-2-28T04:55:18Z
2022-02-28T02:56:47Z,42.805,6.029,13.3003,4.60033,2470.553,2022-2-28T04:58:21Z
2022-02-28T02:59:50Z,42.805,6.029,13.2995,4.60034,2470.614,2022-2-28T05:01:24Z
2022-02-28T03:02:53Z,42.805,6.029,13.3000,4.60031,2470.577,2022-2-28T05:04:28Z
2022-02-28T03:05:56Z,42.805,6.029,13.2993,4.60029,2470.591,2022-2-28T05:07:31Z
2022-02-28T03:08:59Z,42.805,6.029,13.3001,4.60032,2470.614,2022-2-28T05:10:34Z
2022-02-28T03:12:02Z,42.805,6.029,13.2995,4.60029,2470.577,2022-2-28T05:13:37Z
2022-02-28T03:15:05Z,42.805,6.029,13.2995,4.60032,2470.624,2022-2-28T05:16:40Z
2022-02-28T03:18:09Z,42.805,6.029,13.2995,4.60035,2470.6,2022-2-28T05:19:43Z
2022-02-28T03:21:12Z,42.805,6.029,13.2996,4.60035,2470.6,2022-2-28T05:22:46Z
2022-02-28T03:24:15Z,42.805,6.029,13.2992,4.60033,2470.6,2022-2-28T05:25:49Z
2022-02-28T03:27:18Z,42.805,6.029,13.2996,4.60033,2470.6,2022-2-28T05:28:53Z
2022-02-28T03:30:21Z,42.805,6.029,13.2998,4.60032,2470.6,2022-2-28T05:31:56Z
2022-02-28T03:33:24Z,42.805,6.029,13.2998,4.60029,2470.6,2022-2-28T05:34:59Z
2022-02-28T03:36:27Z,42.805,6.029,13.2998,4.60034,2470.6,2022-2-28T05:38:02Z
2022-02-28T03:39:30Z,42.805,6.029,13.2998,4.60039,2470.637,2022-2-28T05:41:05Z
2022-02-28T03:42:34Z,42.805,6.029,13.2998,4.60031,2470.6,2022-2-28T05:44:08Z
2022-02-28T03:45:37Z,42.805,6.029,13.2997,4.60033,2470.6,2022-2-28T05:47:11Z
2022-02-28T03:48:40Z,42.805,6.029,13.2997,4.60031,2470.637,2022-2-28T05:50:14Z
2022-02-28T03:51:43Z,42.805,6.029,13.2996,4.60029,2470.624,2022-2-28T05:53:18Z
2022-02-28T03:54:46Z,42.805,6.029,13.2996,4.60039,2470.6,2022-2-28T05:56:21Z
2022-02-28T03:57:49Z,42.805,6.029,13.2998,4.60038,2470.637,2022-2-28T05:59:24Z
2022-02-28T04:00:52Z,42.805,6.029,13.2998,4.60038,2470.646,2022-2-28T06:02:27Z
2022-02-28T04:03:55Z,42.805,6.029,13.2993,4.60031,2470.6,2022-2-28T06:05:30Z
2022-02-28T04:06:59Z,42.805,6.029,13.2998,4.60038,2470.624,2022-2-28T06:08:33Z
2022-02-28T04:10:02Z,42.805,6.029,13.2998,4.60035,2470.61,2022-2-28T06:11:36Z
2022-02-28T04:13:05Z,42.805,6.029,13.3001,4.60034,2470.646,2022-2-28T06:14:39Z
2022-02-28T04:16:08Z,42.805,6.029,13.2998,4.60039,2470.637,2022-2-28T06:17:43Z
2022-02-28T04:19:11Z,42.805,6.029,13.2999,4.60047,2470.646,2022-2-28T06:20:46Z
2022-02-28T04:22:14Z,42.805,6.029,13.2995,4.60045,2470.646,2022-2-28T06:23:49Z
2022-02-28T04:25:17Z,42.805,6.029,13.2997,4.60040,2470.646,2022-2-28T06:26:52Z
2022-02-28T04:28:20Z,42.805,6.029,13.2999,4.60036,2470.6,2022-2-28T06:29:55Z
2022-02-28T04:31:24Z,42.805,6.029,13.2994,4.60034,2470.646,2022-2-28T06:32:58Z
2022-02-28T04:34:27Z,42.805,6.029,13.2995,4.60033,2470.661,2022-2-28T06:36:01Z
2022-02-28T04:37:30Z,42.805,6.029,13.2996,4.60031,2470.646,2022-2-28T06:39:04Z
2022-02-28T04:40:33Z,42.805,6.029,13.2998,4.60029,2470.646,2022-2-28T06:42:08Z
2022-02-28T04:43:36Z,42.805,6.029,13.2997,4.60029,2470.661,2022-2-28T06:45:11Z
2022-02-28T04:46:39Z,42.805,6.029,13.3000,4.60035,2470.67,2022-2-28T06:48:14Z
2022-02-28T04:49:42Z,42.805,6.029,13.2996,4.60039,2470.624,2022-2-28T06:51:17Z
2022-02-28T04:52:45Z,42.805,6.029,13.2999,4.60039,2470.67,2022-2-28T06:54:20Z
2022-02-28T04:55:49Z,42.805,6.029,13.3001,4.60034,2470.684,2022-2-28T06:57:23Z
2022-02-28T04:58:52Z,42.805,6.029,13.3000,4.60036,2470.624,2022-2-28T07:00:26Z
2022-02-28T05:01:55Z,42.805,6.029,13.2997,4.60041,2470.624,2022-2-28T07:03:29Z
2022-02-28T05:04:58Z,42.805,6.029,13.2996,4.60031,2470.646,2022-2-28T07:06:32Z
2022-02-28T05:08:01Z,42.805,6.029,13.2997,4.60029,2470.67,2022-2-28T07:09:36Z
2022-02-28T05:11:04Z,42.805,6.029,13.3000,4.60036,2470.707,2022-2-28T07:12:39Z
2022-02-28T05:14:07Z,42.805,6.029,13.3000,4.60041,2470.646,2022-2-28T07:15:42Z
2022-02-28T05:17:10Z,42.805,6.029,13.2996,4.60038,2470.624,2022-2-28T07:18:45Z
2022-02-28T05:20:13Z,42.805,6.029,13.2996,4.60041,2470.707,2022-2-28T07:21:48Z
2022-02-28T05:23:17Z,42.805,6.029,13.2996,4.60035,2470.67,2022-2-28T07:24:51Z
2022-02-28T05:26:20Z,42.805,6.029,13.3010,4.60035,2470.67,2022-2-28T07:27:54Z
2022-02-28T05:29:23Z,42.805,6.029,13.2997,4.60043,2470.684,2022-2-28T07:30:57Z
2022-02-28T05:32:26Z,42.805,6.029,13.2998,4.60040,2470.67,2022-2-28T07:34:01Z
2022-02-28T05:35:29Z,42.805,6.029,13.2996,4.60033,2470.646,2022-2-28T07:37:04Z
2022-02-28T05:38:32Z,42.805,6.029,13.3003,4.60036,2470.707,2022-2-28T07:40:07Z
2022-02-28T05:41:35Z,42.805,6.029,13.2998,4.60039,2470.717,2022-2-28T07:43:10Z
2022-02-28T05:44:38Z,42.805,6.029,13.2998,4.60034,2470.684,2022-2-28T07:46:13Z
2022-02-28T05:47:42Z,42.805,6.029,13.2994,4.60038,2470.661,2022-2-28T07:49:16Z
2022-02-28T05:50:45Z,42.805,6.029,13.2998,4.60037,2470.646,2022-2-28T07:52:19Z
2022-02-28T05:53:48Z,42.805,6.029,13.2998,4.60045,2470.67,2022-2-28T07:55:22Z
2022-02-28T05:56:51Z,42.805,6.029,13.2995,4.60041,2470.684,2022-2-28T07:58:26Z
2022-02-28T05:59:54Z,42.805,6.029,13.2997,4.60042,2470.693,2022-2-28T08:01:29Z
2022-02-28T06:02:57Z,42.805,6.029,13.3000,4.60042,2470.646,2022-2-28T08:04:32Z
2022-02-28T06:06:00Z,42.805,6.029,13.3021,4.60055,2470.67,2022-2-28T08:07:35Z
2022-02-28T06:09:03Z,42.805,6.029,13.2995,4.60041,2470.67,2022-2-28T08:10:38Z
2022-02-28T06:12:07Z,42.805,6.029,13.3008,4.60042,2470.684,2022-2-28T08:13:41Z
2022-02-28T06:15:10Z,42.805,6.029,13.3044,4.60057,2470.661,2022-2-28T08:16:44Z
2022-02-28T06:18:13Z,42.805,6.029,13.3039,4.60056,2470.67,2022-2-28T08:19:47Z
2022-02-28T06:21:16Z,42.805,6.029,13.3044,4.60077,2470.73,2022-2-28T08:22:51Z
2022-02-28T06:24:19Z,42.805,6.029,13.3024,4.60058,2470.693,2022-2-28T08:25:54Z
2022-02-28T06:27:22Z,42.805,6.029,13.3010,4.60046,2470.67,2022-2-28T08:28:57Z
2022-02-28T06:30:25Z,42.805,6.029,13.3015,4.60056,2470.707,2022-2-28T08:32:00Z
2022-02-28T06:33:28Z,42.805,6.029,13.3006,4.60056,2470.684,2022-2-28T08:35:03Z
2022-02-28T06:36:32Z,42.805,6.029,13.3015,4.60057,2470.707,2022-2-28T08:38:06Z
2022-02-28T06:39:35Z,42.805,6.029,13.3011,4.60054,2470.646,2022-2-28T08:41:09Z
2022-02-28T06:42:38Z,42.805,6.029,13.2996,4.60054,2470.67,2022-2-28T08:44:12Z
2022-02-28T06:45:41Z,42.805,6.029,13.2999,4.60054,2470.67,2022-2-28T08:47:15Z
2022-02-28T06:48:44Z,42.805,6.029,13.2996,4.60047,2470.707,2022-2-28T08:50:19Z
2022-02-28T06:51:47Z,42.805,6.029,13.3000,4.60057,2470.67,2022-2-28T08:53:22Z
2022-02-28T06:54:50Z,42.805,6.029,13.2996,4.60057,2470.693,2022-2-28T08:56:25Z
2022-02-28T06:57:53Z,42.805,6.029,13.2998,4.60050,2470.684,2022-2-28T08:59:28Z
2022-02-28T07:00:56Z,42.805,6.029,13.2999,4.60047,2470.67,2022-2-28T09:02:31Z
2022-02-28T07:04:00Z,42.805,6.029,13.2997,4.60051,2470.684,2022-2-28T09:05:34Z
2022-02-28T07:07:03Z,42.805,6.029,13.3000,4.60037,2470.67,2022-2-28T09:08:37Z
2022-02-28T07:10:06Z,42.805,6.029,13.2996,4.60033,2470.67,2022-2-28T09:11:40Z
2022-02-28T07:13:09Z,42.805,6.029,13.2998,4.60032,2470.646,2022-2-28T09:14:44Z
2022-02-28T07:16:12Z,42.805,6.029,13.2996,4.60035,2470.693,2022-2-28T09:17:47Z
2022-02-28T07:19:15Z,42.805,6.029,13.2997,4.60033,2470.661,2022-2-28T09:20:50Z
2022-02-28T07:22:18Z,42.805,6.029,13.2998,4.60031,2470.684,2022-2-28T09:23:53Z
2022-02-28T07:25:21Z,42.805,6.029,13.2996,4.60032,2470.661,2022-2-28T09:26:56Z
2022-02-28T07:28:25Z,42.805,6.029,13.2999,4.60032,2470.67,2022-2-28T09:29:59Z
2022-02-28T07:31:28Z,42.805,6.029,13.2997,4.60031,2470.67,2022-2-28T09:33:02Z
2022-02-28T07:34:31Z,42.805,6.029,13.2996,4.60033,2470.693,2022-2-28T09:36:05Z
2022-02-28T07:37:34Z,42.805,6.029,13.3000,4.60031,2470.637,2022-2-28T09:39:09Z
2022-02-28T07:40:37Z,42.805,6.029,13.2997,4.60031,2470.624,2022-2-28T09:42:12Z
2022-02-28T07:43:40Z,42.805,6.029,13.2997,4.60032,2470.646,2022-2-28T09:45:15Z
2022-02-28T07:46:43Z,42.805,6.029,13.2998,4.60029,2470.646,2022-2-28T09:48:18Z
2022-02-28T07:49:46Z,42.805,6.029,13.3000,4.60040,2470.67,2022-2-28T09:51:21Z
2022-02-28T07:52:50Z,42.805,6.029,13.2993,4.60033,2470.646,2022-2-28T09:54:24Z
2022-02-28T07:55:53Z,42.805,6.029,13.3000,4.60030,2470.684,2022-2-28T09:57:27Z
2022-02-28T07:58:56Z,42.805,6.029,13.2998,4.60036,2470.646,2022-2-28T10:00:30Z
2022-02-28T08:01:59Z,42.805,6.029,13.2997,4.60032,2470.637,2022-2-28T10:03:34Z
2022-02-28T08:05:02Z,42.805,6.029,13.2999,4.60033,2470.67,2022-2-28T10:06:37Z
2022-02-28T08:08:05Z,42.805,6.029,13.2999,4.60033,2470.661,2022-2-28T10:09:40Z
2022-02-28T08:11:08Z,42.805,6.029,13.3003,4.60029,2470.646,2022-2-28T10:12:43Z
2022-02-28T08:14:11Z,42.805,6.029,13.2998,4.60029,2470.646,2022-2-28T10:15:46Z
2022-02-28T08:17:15Z,42.805,6.029,13.2999,4.60030,2470.661,2022-2-28T10:18:49Z
2022-02-28T08:20:18Z,42.805,6.029,13.2998,4.60033,2470.624,2022-2-28T10:21:52Z
2022-02-28T08:23:21Z,42.805,6.029,13.2996,4.60033,2470.633,2022-2-28T10:24:55Z
2022-02-28T08:26:24Z,42.805,6.029,13.2998,4.60029,2470.661,2022-2-28T10:27:59Z
2022-02-28T08:29:27Z,42.805,6.029,13.3000,4.60029,2470.684,2022-2-28T10:31:02Z
2022-02-28T08:32:30Z,42.805,6.029,13.2996,4.60031,2470.661,2022-2-28T10:34:05Z
2022-02-28T08:35:33Z,42.805,6.029,13.2996,4.60029,2470.61,2022-2-28T10:37:08Z
2022-02-28T08:38:36Z,42.805,6.029,13.2998,4.60029,2470.61,2022-2-28T10:40:11Z
2022-02-28T08:41:40Z,42.805,6.029,13.2997,4.60031,2470.6,2022-2-28T10:43:14Z
2022-02-28T08:44:43Z,42.805,6.029,13.2995,4.60031,2470.614,2022-2-28T10:46:17Z
2022-02-28T08:47:46Z,42.805,6.029,13.2996,4.60031,2470.624,2022-2-28T10:49:21Z
2022-02-28T08:50:49Z,42.805,6.029,13.2993,4.60028,2470.624,2022-2-28T10:52:24Z
2022-02-28T08:53:52Z,42.805,6.029,13.2999,4.60030,2470.637,2022-2-28T10:55:27Z
2022-02-28T08:56:55Z,42.805,6.029,13.3000,4.60029,2470.614,2022-2-28T10:58:30Z
2022-02-28T08:59:58Z,42.805,6.029,13.3001,4.60031,2470.637,2022-2-28T11:01:33Z
2022-02-28T09:03:01Z,42.805,6.029,13.2996,4.60033,2470.637,2022-2-28T11:04:36Z
2022-02-28T09:06:05Z,42.805,6.029,13.2998,4.60031,2470.637,2022-2-28T11:07:39Z
2022-02-28T09:09:08Z,42.805,6.029,13.2997,4.60035,2470.661,2022-2-28T11:10:42Z
2022-02-28T09:12:11Z,42.805,6.029,13.2997,4.60030,2470.591,2022-2-28T11:13:46Z
2022-02-28T09:15:14Z,42.805,6.029,13.2996,4.60030,2470.6,2022-2-28T11:16:49Z
2022-02-28T09:18:17Z,42.805,6.029,13.3002,4.60030,2470.614,2022-2-28T11:19:52Z
2022-02-28T09:21:20Z,42.805,6.029,13.2999,4.60029,2470.577,2022-2-28T11:22:55Z
2022-02-28T09:24:23Z,42.805,6.029,13.2999,4.60031,2470.624,2022-2-28T11:25:58Z
2022-02-28T09:27:27Z,42.805,6.029,13.2999,4.60029,2470.614,2022-2-28T11:29:01Z
2022-02-28T09:30:30Z,42.805,6.029,13.2999,4.60031,2470.614,2022-2-28T11:32:04Z
2022-02-28T09:33:33Z,42.805,6.029,13.2996,4.60031,2470.624,2022-2-28T11:35:07Z
2022-02-28T09:36:36Z,42.805,6.029,13.2997,4.60034,2470.6,2022-2-28T11:38:11Z
2022-02-28T09:39:39Z,42.805,6.029,13.3001,4.60029,2470.6,2022-2-28T11:41:14Z
2022-02-28T09:42:42Z,42.805,6.029,13.2993,4.60028,2470.577,2022-2-28T11:44:17Z
2022-02-28T09:45:45Z,42.805,6.029,13.2998,4.60026,2470.614,2022-2-28T11:47:20Z
2022-02-28T09:48:48Z,42.805,6.029,13.2998,4.60029,2470.6,2022-2-28T11:50:23Z
2022-02-28T09:51:52Z,42.805,6.029,13.2999,4.60031,2470.567,2022-2-28T11:53:26Z
2022-02-28T09:54:55Z,42.805,6.029,13.3000,4.60031,2470.614,2022-2-28T11:56:29Z
2022-02-28T09:57:58Z,42.805,6.029,13.3001,4.60031,2470.577,2022-2-28T11:59:32Z
2022-02-28T10:01:01Z,42.805,6.029,13.3006,4.60033,2470.577,2022-2-28T12:02:36Z
2022-02-28T10:04:04Z,42.805,6.029,13.3002,4.60029,2470.563,2022-2-28T12:05:39Z
2022-02-28T10:07:07Z,42.805,6.029,13.2999,4.60029,2470.567,2022-2-28T12:08:42Z
2022-02-28T10:10:10Z,42.805,6.029,13.3002,4.60031,2470.614,2022-2-28T12:11:45Z
2022-02-28T10:13:13Z,42.805,6.029,13.3000,4.60028,2470.614,2022-2-28T12:14:48Z
2022-02-28T10:16:17Z,42.805,6.029,13.2998,4.60031,2470.577,2022-2-28T12:17:51Z
2022-02-28T10:19:20Z,42.805,6.029,13.2997,4.60051,2470.591,2022-2-28T12:20:54Z
2022-02-28T10:22:23Z,42.805,6.029,13.2998,4.60028,2470.567,2022-2-28T12:23:57Z
2022-02-28T10:25:26Z,42.805,6.029,13.2999,4.60033,2470.577,2022-2-28T12:27:01Z
2022-02-28T10:28:29Z,42.805,6.029,13.3000,4.60027,2470.567,2022-2-28T12:30:04Z
2022-02-28T10:31:32Z,42.805,6.029,13.2996,4.60041,2470.577,2022-2-28T12:33:07Z
2022-02-28T10:34:35Z,42.805,6.029,13.3003,4.60032,2470.577,2022-2-28T12:36:10Z
2022-02-28T10:37:38Z,42.805,6.029,13.3000,4.60027,2470.567,2022-2-28T12:39:13Z
2022-02-28T10:40:42Z,42.805,6.029,13.3002,4.60029,2470.53,2022-2-28T12:42:16Z
2022-02-28T10:43:45Z,42.805,6.029,13.3000,4.60032,2470.591,2022-2-28T12:45:19Z
2022-02-28T10:46:48Z,42.805,6.029,13.2996,4.60041,2470.53,2022-2-28T12:48:22Z
2022-02-28T10:49:51Z,42.805,6.029,13.2996,4.60028,2470.53,2022-2-28T12:51:26Z
2022-02-28T10:52:54Z,42.805,6.029,13.2995,4.60031,2470.544,2022-2-28T12:54:29Z
2022-02-28T10:55:57Z,42.805,6.029,13.2996,4.60028,2470.553,2022-2-28T12:57:32Z
2022-02-28T10:59:00Z,42.805,6.029,13.2998,4.60029,2470.577,2022-2-28T13:00:35Z
2022-02-28T11:02:03Z,42.805,6.029,13.3000,4.60029,2470.53,2022-2-28T13:03:38Z
2022-02-28T11:05:07Z,42.805,6.029,13.2995,4.60031,2470.577,2022-2-28T13:06:41Z
2022-02-28T11:08:10Z,42.805,6.029,13.2999,4.60027,2470.553,2022-2-28T13:09:44Z
2022-02-28T11:11:13Z,42.805,6.029,13.2996,4.60029,2470.53,2022-2-28T13:12:48Z
2022-02-28T11:14:16Z,42.805,6.029,13.3000,4.60029,2470.553,2022-2-28T13:15:51Z
2022-02-28T11:17:19Z,42.805,6.029,13.2996,4.60031,2470.52,2022-2-28T13:18:54Z
2022-02-28T11:20:22Z,42.805,6.029,13.2998,4.60026,2470.53,2022-2-28T13:21:57Z
2022-02-28T11:23:25Z,42.805,6.029,13.2998,4.60026,2470.53,2022-2-28T13:25:00Z
2022-02-28T11:26:29Z,42.805,6.029,13.2997,4.60026,2470.52,2022-2-28T13:28:03Z
2022-02-28T11:29:32Z,42.805,6.029,13.2998,4.60026,2470.53,2022-2-28T13:31:06Z
2022-02-28T11:32:35Z,42.805,6.029,13.2998,4.60026,2470.507,2022-2-28T13:34:09Z
2022-02-28T11:35:38Z,42.805,6.029,13.2999,4.60040,2470.507,2022-2-28T13:37:13Z
2022-02-28T11:38:41Z,42.805,6.029,13.2996,4.60027,2470.483,2022-2-28T13:40:16Z
2022-02-28T11:41:44Z,42.805,6.029,13.2999,4.60031,2470.483,2022-2-28T13:43:19Z
2022-02-28T11:44:47Z,42.805,6.029,13.2995,4.60028,2470.497,2022-2-28T13:46:22Z
2022-02-28T11:47:50Z,42.805,6.029,13.2996,4.60027,2470.52,2022-2-28T13:49:25Z
2022-02-28T11:50:54Z,42.805,6.029,13.2999,4.60030,2470.507,2022-2-28T13:52:28Z
2022-02-28T11:53:57Z,42.805,6.029,13.2999,4.60027,2470.497,2022-2-28T13:55:31Z
2022-02-28T11:57:00Z,42.805,6.029,13.3000,4.60027,2470.497,2022-2-28T13:58:34Z
2022-02-28T12:00:03Z,42.805,6.029,13.2997,4.60027,2470.46,2022-2-28T14:01:38Z
2022-02-28T12:03:06Z,42.805,6.029,13.2996,4.60028,2470.52,2022-2-28T14:04:41Z
2022-02-28T12:06:09Z,42.805,6.029,13.2996,4.60028,2470.497,2022-2-28T14:07:44Z
2022-02-28T12:09:12Z,42.805,6.029,13.2994,4.60032,2470.483,2022-2-28T14:10:47Z
2022-02-28T12:12:15Z,42.805,6.029,13.2995,4.60029,2470.493,2022-2-28T14:13:50Z
2022-02-28T12:15:19Z,42.805,6.029,13.2996,4.60028,2470.507,2022-2-28T14:16:53Z
2022-02-28T12:18:22Z,42.805,6.029,13.2998,4.60029,2470.497,2022-2-28T14:19:56Z
2022-02-28T12:21:25Z,42.805,6.029,13.2999,4.60029,2470.46,2022-2-28T14:22:59Z
2022-02-28T12:24:28Z,42.805,6.029,13.2993,4.60029,2470.497,2022-2-28T14:26:03Z
2022-02-28T12:27:31Z,42.805,6.029,13.2994,4.60027,2470.46,2022-2-28T14:29:06Z
2022-02-28T12:30:34Z,42.805,6.029,13.2998,4.60028,2470.483,2022-2-28T14:32:09Z
2022-02-28T12:33:37Z,42.805,6.029,13.2998,4.60028,2470.483,2022-2-28T14:35:12Z
2022-02-28T12:36:40Z,42.805,6.029,13.3002,4.60029,2470.46,2022-2-28T14:38:15Z
2022-02-28T12:39:44Z,42.805,6.029,13.2997,4.60027,2470.483,2022-2-28T14:41:18Z
2022-02-28T12:42:47Z,42.805,6.029,13.2995,4.60026,2470.507,2022-2-28T14:44:21Z
2022-02-28T12:45:50Z,42.805,6.029,13.2999,4.60026,2470.497,2022-2-28T14:47:24Z
2022-02-28T12:48:53Z,42.805,6.029,13.2995,4.60029,2470.483,2022-2-28T14:50:28Z
2022-02-28T12:51:56Z,42.805,6.029,13.2999,4.60029,2470.483,2022-2-28T14:53:31Z
2022-02-28T12:54:59Z,42.805,6.029,13.2999,4.60026,2470.46,2022-2-28T14:56:34Z
2022-02-28T12:58:02Z,42.805,6.029,13.2998,4.60027,2470.474,2022-2-28T14:59:37Z
2022-02-28T13:01:05Z,42.805,6.029,13.2997,4.60031,2470.46,2022-2-28T15:02:40Z
2022-02-28T13:04:09Z,42.805,6.029,13.2998,4.60026,2470.46,2022-2-28T15:05:43Z
2022-02-28T13:07:12Z,42.805,6.029,13.2993,4.60027,2470.483,2022-2-28T15:08:46Z
2022-02-28T13:10:15Z,42.805,6.029,13.2996,4.60031,2470.497,2022-2-28T15:11:49Z
2022-02-28T13:13:18Z,42.805,6.029,13.3000,4.60028,2470.46,2022-2-28T15:14:53Z
2022-02-28T13:16:21Z,42.805,6.029,13.2998,4.60025,2470.46,2022-2-28T15:17:56Z
2022-02-28T13:19:24Z,42.805,6.029,13.2996,4.60027,2470.483,2022-2-28T15:20:59Z
2022-02-28T13:22:27Z,42.805,6.029,13.2994,4.60026,2470.507,2022-2-28T15:24:02Z
2022-02-28T13:25:30Z,42.805,6.029,13.2996,4.60026,2470.474,2022-2-28T15:27:05Z
2022-02-28T13:28:34Z,42.805,6.029,13.2998,4.60026,2470.507,2022-2-28T15:30:08Z
2022-02-28T13:31:37Z,42.805,6.029,13.2997,4.60029,2470.46,2022-2-28T15:33:11Z
2022-02-28T13:34:40Z,42.805,6.029,13.2998,4.60029,2470.507,2022-2-28T15:36:14Z
2022-02-28T13:37:43Z,42.805,6.029,13.2998,4.60027,2470.46,2022-2-28T15:39:18Z
2022-02-28T13:40:46Z,42.805,6.029,13.2995,4.60027,2470.497,2022-2-28T15:42:21Z
2022-02-28T13:43:49Z,42.805,6.029,13.2994,4.60034,2470.483,2022-2-28T15:45:24Z
2022-02-28T13:46:52Z,42.805,6.029,13.3000,4.60029,2470.483,2022-2-28T15:48:27Z
2022-02-28T13:49:55Z,42.805,6.029,13.2998,4.60027,2470.47,2022-2-28T15:51:30Z
2022-02-28T13:52:59Z,42.805,6.029,13.2996,4.60026,2470.52,2022-2-28T15:54:33Z
2022-02-28T13:56:02Z,42.805,6.029,13.2996,4.60030,2470.474,2022-2-28T15:57:36Z
2022-02-28T13:59:05Z,42.805,6.029,13.2995,4.60026,2470.483,2022-2-28T16:00:40Z
2022-02-28T14:02:08Z,42.805,6.029,13.2999,4.60027,2470.507,2022-2-28T16:03:43Z
2022-02-28T14:05:11Z,42.805,6.029,13.2996,4.60027,2470.483,2022-2-28T16:06:46Z
2022-02-28T14:08:14Z,42.805,6.029,13.2998,4.60027,2470.46,2022-2-28T16:09:49Z
2022-02-28T14:11:17Z,42.805,6.029,13.2998,4.60026,2470.507,2022-2-28T16:12:52Z
2022-02-28T14:14:20Z,42.805,6.029,13.2996,4.60027,2470.534,2022-2-28T16:15:55Z
2022-02-28T14:17:24Z,42.805,6.029,13.2994,4.60026,2470.483,2022-2-28T16:18:58Z
2022-02-28T14:20:27Z,42.805,6.029,13.3000,4.60030,2470.52,2022-2-28T16:22:01Z
2022-02-28T14:23:30Z,42.805,6.029,13.3003,4.60026,2470.507,2022-2-28T16:25:05Z
2022-02-28T14:26:33Z,42.805,6.029,13.2996,4.60025,2470.483,2022-2-28T16:28:08Z
2022-02-28T14:29:36Z,42.805,6.029,13.2995,4.60026,2470.483,2022-2-28T16:31:11Z
2022-02-28T14:32:39Z,42.805,6.029,13.2998,4.60027,2470.52,2022-2-28T16:34:14Z
2022-02-28T14:35:42Z,42.805,6.029,13.2995,4.60027,2470.483,2022-2-28T16:37:17Z
2022-02-28T14:38:46Z,42.805,6.029,13.2994,4.60027,2470.483,2022-2-28T16:40:20Z
2022-02-28T14:41:49Z,42.805,6.029,13.2999,4.60027,2470.544,2022-2-28T16:43:23Z
2022-02-28T14:44:52Z,42.805,6.029,13.3002,4.60033,2470.544,2022-2-28T16:46:26Z
2022-02-28T14:47:55Z,42.805,6.029,13.2997,4.60029,2470.553,2022-2-28T16:49:30Z
2022-02-28T14:50:58Z,42.805,6.029,13.2997,4.60029,2470.507,2022-2-28T16:52:33Z
2022-02-28T14:54:01Z,42.805,6.029,13.2998,4.60027,2470.553,2022-2-28T16:55:36Z
2022-02-28T14:57:04Z,42.805,6.029,13.2996,4.60029,2470.507,2022-2-28T16:58:39Z
2022-02-28T15:00:07Z,42.805,6.029,13.3002,4.60026,2470.507,2022-2-28T17:01:42Z
2022-02-28T15:03:11Z,42.805,6.029,13.2998,4.60029,2470.544,2022-2-28T17:04:45Z
2022-02-28T15:06:14Z,42.805,6.029,13.2998,4.60026,2470.52,2022-2-28T17:07:48Z
2022-02-28T15:09:17Z,42.805,6.029,13.3000,4.60027,2470.53,2022-2-28T17:10:51Z
2022-02-28T15:12:20Z,42.805,6.029,13.3000,4.60031,2470.544,2022-2-28T17:13:55Z
2022-02-28T15:15:23Z,42.805,6.029,13.3001,4.60031,2470.52,2022-2-28T17:16:58Z